Location: Utrecht
(52.0907°N, 5.1214°E)
Time: 19:09:06
(UTC+02:00)

KKS-1 - Pass Details

Date: 04 July 2022
Orbit: 634 x 649 km, 98.2° (Epoch: 18 August)

Event Time Altitude Azimuth Distance (km) Brightness Sun altitude
Rises 00:30:19 0° 10° (N) 2,981 ? -13.3°
Reaches altitude 10° 00:32:36 10° 5° (N) 2,064 ? -13.4°
Maximum altitude 00:36:53 46° 292° (WNW) 874 ? -13.6°
Drops below altitude 10° 00:41:09 10° 220° (SW) 2,043 ? -13.8°
Enters shadow 00:41:44 - 218° (SW) 2,277 ? -13.8°
